Previsão horária em Sen'kivs'ke

Hoje, 1 Dezembro, Terça-feira

Tempo Temperatura Precipitação Vento Pressão Humidade
00:00 -4°C° 0 mm 1 m/s 678 mmHg 100%
01:00 -6°C° 0 mm 1 m/s 677 mmHg 100%
02:00 -6°C° 0 mm 1 m/s 677 mmHg 97%
03:00 -6°C° 0 mm 1 m/s 677 mmHg 94%
04:00 -6°C° 0 mm 1 m/s 677 mmHg 91%
05:00 -6°C° 0 mm 1 m/s 677 mmHg 91%
06:00 -6°C° 0 mm 1 m/s 676 mmHg 91%
07:00 -6°C° 0 mm 1 m/s 676 mmHg 92%
08:00 -6°C° 0 mm 0 m/s 676 mmHg 95%
09:00 -6°C° 0 mm 0 m/s 676 mmHg 100%
10:00 -5°C° 0 mm 0 m/s 677 mmHg 100%
11:00 -5°C° 0 mm 0 m/s 677 mmHg 100%
12:00 -4°C° 0 mm 0 m/s 677 mmHg 100%
13:00 -4°C° 0 mm 0 m/s 677 mmHg 99%
14:00 -2°C° 0 mm 1 m/s 677 mmHg 100%
15:00 -2°C° 0 mm 1 m/s 677 mmHg 100%
16:00 -3°C° 0 mm 1 m/s 676 mmHg 100%
17:00 -5°C° 0 mm 2 m/s 676 mmHg 100%
18:00 -5°C° 0 mm 2 m/s 676 mmHg 100%
19:00 -4°C° 0 mm 1 m/s 677 mmHg 100%
20:00 -4°C° 0 mm 1 m/s 677 mmHg 100%
21:00 -6°C° 0 mm 1 m/s 677 mmHg 100%
22:00 -6°C° 0 mm 0 m/s 676 mmHg 100%
23:00 -6°C° 0 mm 0 m/s 676 mmHg 100%

Amanhã, 2 Dezembro, Quarta-feira

Tempo Temperatura Precipitação Vento Pressão Humidade
00:00 -7°C° 0 mm 0 m/s 676 mmHg 100%
01:00 -7°C° 0 mm 0 m/s 676 mmHg 100%
02:00 -6°C° 0 mm 0 m/s 676 mmHg 100%
03:00 -6°C° 0 mm 0 m/s 676 mmHg 98%
04:00 -6°C° 0 mm 0 m/s 676 mmHg 97%
05:00 -6°C° 0 mm 0 m/s 676 mmHg 96%
06:00 -6°C° 0 mm 0 m/s 676 mmHg 97%
07:00 -6°C° 0 mm 0 m/s 676 mmHg 100%
08:00 -7°C° 0 mm 0 m/s 676 mmHg 100%
09:00 -7°C° 0 mm 0 m/s 676 mmHg 100%
10:00 -6°C° 0 mm 0 m/s 676 mmHg 100%
11:00 -5°C° 0 mm 0 m/s 676 mmHg 100%
12:00 -4°C° 0 mm 0 m/s 676 mmHg 100%
13:00 -4°C° 0 mm 0 m/s 676 mmHg 100%
14:00 -3°C° 0 mm 0 m/s 676 mmHg 100%
15:00 -3°C° 0 mm 0 m/s 676 mmHg 100%
16:00 -3°C° 0 mm 1 m/s 675 mmHg 100%
17:00 -3°C° 0 mm 1 m/s 675 mmHg 100%
18:00 -4°C° 0 mm 1 m/s 675 mmHg 100%
19:00 -4°C° 0 mm 1 m/s 675 mmHg 100%
20:00 -4°C° 0 mm 1 m/s 674 mmHg 100%
21:00 -4°C° 0 mm 1 m/s 674 mmHg 100%
22:00 -4°C° 0 mm 1 m/s 674 mmHg 100%
23:00 -4°C° 0 mm 1 m/s 674 mmHg 99%

Depois de amanhã, 3 Dezembro, Quinta-feira

Tempo Temperatura Precipitação Vento Pressão Humidade
00:00 -4°C° 0 mm 1 m/s 674 mmHg 97%
01:00 -6°C° 0 mm 2 m/s 673 mmHg 96%
02:00 -6°C° 0 mm 2 m/s 673 mmHg 94%
03:00 -7°C° 0 mm 3 m/s 673 mmHg 96%
04:00 -7°C° 0 mm 3 m/s 673 mmHg 93%
05:00 -7°C° 0 mm 3 m/s 673 mmHg 89%
06:00 -7°C° 0 mm 3 m/s 672 mmHg 84%
07:00 -7°C° 0 mm 3 m/s 672 mmHg 79%
08:00 -7°C° 0 mm 3 m/s 672 mmHg 76%
09:00 -6°C° 0 mm 3 m/s 672 mmHg 77%
10:00 -5°C° 0 mm 3 m/s 672 mmHg 79%
11:00 -2°C° 0 mm 3 m/s 672 mmHg 78%
12:00 -1°C° 0 mm 3 m/s 673 mmHg 77%
13:00 0°C° 0 mm 4 m/s 673 mmHg 77%
14:00 +1°C° 0 mm 3 m/s 673 mmHg 81%
15:00 +2°C° 0 mm 3 m/s 673 mmHg 86%
16:00 +1°C° 0 mm 3 m/s 672 mmHg 89%
17:00 +1°C° 0 mm 3 m/s 672 mmHg 87%
18:00 -1°C° 0 mm 4 m/s 672 mmHg 85%
19:00 -1°C° 0 mm 4 m/s 672 mmHg 85%
20:00 -1°C° 0 mm 4 m/s 672 mmHg 86%
21:00 -1°C° 0 mm 4 m/s 672 mmHg 88%
22:00 0°C° 0 mm 3 m/s 672 mmHg 90%
23:00 0°C° 0 mm 3 m/s 672 mmHg 89%

4 Dezembro, Sexta-feira

Tempo Temperatura Precipitação Vento Pressão Humidade
00:00 -1°C° 0 mm 4 m/s 672 mmHg 88%
01:00 0°C° 0 mm 5 m/s 671 mmHg 87%
02:00 0°C° 0 mm 4 m/s 671 mmHg 85%
03:00 -1°C° 0 mm 4 m/s 671 mmHg 84%
04:00 -1°C° 0 mm 5 m/s 670 mmHg 83%
05:00 -1°C° 0 mm 5 m/s 670 mmHg 85%
06:00 -1°C° 0 mm 5 m/s 670 mmHg 87%
07:00 -1°C° 0 mm 5 m/s 670 mmHg 88%
08:00 -1°C° 0 mm 5 m/s 670 mmHg 88%
09:00 0°C° 0 mm 5 m/s 670 mmHg 88%
10:00 +1°C° 0 mm 5 m/s 670 mmHg 92%
11:00 +2°C° 0 mm 6 m/s 670 mmHg 93%
12:00 +3°C° 0 mm 7 m/s 670 mmHg 92%
13:00 +2°C° 0 mm 8 m/s 670 mmHg 92%
14:00 +2°C° 0 mm 8 m/s 670 mmHg 92%
15:00 +2°C° 0 mm 8 m/s 670 mmHg 92%
16:00 +2°C° 0 mm 7 m/s 669 mmHg 93%
17:00 +1°C° 0 mm 6 m/s 669 mmHg 94%
18:00 +1°C° 0 mm 5 m/s 669 mmHg 94%
19:00 0°C° 0 mm 5 m/s 669 mmHg 96%
20:00 0°C° 0 mm 4 m/s 669 mmHg 100%
21:00 +1°C° 0.1 mm 4 m/s 669 mmHg 100%
22:00 +1°C° 0 mm 4 m/s 670 mmHg 100%
23:00 +1°C° 0 mm 5 m/s 669 mmHg 100%

5 Dezembro, Sábado

Tempo Temperatura Precipitação Vento Pressão Humidade
00:00 +1°C° 0 mm 4 m/s 669 mmHg 99%
01:00 +1°C° 0 mm 4 m/s 669 mmHg 100%
02:00 +1°C° 0 mm 5 m/s 669 mmHg 100%
03:00 +1°C° 0 mm 5 m/s 670 mmHg 100%
04:00 +1°C° 0 mm 4 m/s 669 mmHg 100%
05:00 +1°C° 0 mm 5 m/s 669 mmHg 100%
06:00 +1°C° 0 mm 5 m/s 669 mmHg 100%
07:00 +1°C° 0 mm 6 m/s 670 mmHg 100%
08:00 +1°C° 0 mm 6 m/s 670 mmHg 100%
09:00 +1°C° 0 mm 6 m/s 670 mmHg 100%
10:00 +1°C° 0 mm 5 m/s 671 mmHg 100%
11:00 +2°C° 0 mm 5 m/s 671 mmHg 100%
12:00 +4°C° 0 mm 4 m/s 671 mmHg 99%
13:00 +4°C° 0 mm 4 m/s 671 mmHg 98%
14:00 +4°C° 0 mm 4 m/s 671 mmHg 98%
15:00 +4°C° 0 mm 3 m/s 671 mmHg 100%
16:00 +3°C° 0 mm 3 m/s 671 mmHg 100%
17:00 +4°C° 0 mm 2 m/s 671 mmHg 100%
18:00 +4°C° 0 mm 2 m/s 671 mmHg 100%
19:00 +3°C° 0 mm 3 m/s 671 mmHg 100%
20:00 +3°C° 0 mm 3 m/s 671 mmHg 99%
21:00 +3°C° 0 mm 4 m/s 671 mmHg 97%
22:00 +3°C° 0 mm 5 m/s 671 mmHg 96%
23:00 +3°C° 0 mm 6 m/s 671 mmHg 97%

6 Dezembro, Domingo

Tempo Temperatura Precipitação Vento Pressão Humidade
00:00 +3°C° 0 mm 6 m/s 671 mmHg 98%
01:00 +3°C° 0 mm 6 m/s 671 mmHg 99%
02:00 +3°C° 0 mm 6 m/s 671 mmHg 99%
03:00 +3°C° 0 mm 6 m/s 671 mmHg 99%
04:00 +2°C° 0 mm 6 m/s 671 mmHg 99%
05:00 +2°C° 0 mm 6 m/s 671 mmHg 98%
06:00 +2°C° 0 mm 6 m/s 670 mmHg 97%
07:00 +2°C° 0 mm 7 m/s 671 mmHg 98%
08:00 +2°C° 0 mm 7 m/s 671 mmHg 100%
09:00 +2°C° 0 mm 6 m/s 671 mmHg 100%
10:00 +3°C° 0 mm 6 m/s 671 mmHg 100%
11:00 +3°C° 0 mm 6 m/s 671 mmHg 100%
12:00 +2°C° 0 mm 5 m/s 671 mmHg 100%
13:00 +2°C° 0 mm 5 m/s 671 mmHg 100%
14:00 +1°C° 0 mm 4 m/s 670 mmHg 100%
15:00 +1°C° 0 mm 4 m/s 670 mmHg 100%
16:00 +1°C° 0 mm 4 m/s 669 mmHg 100%
17:00 +3°C° 0 mm 4 m/s 669 mmHg 100%
18:00 +3°C° 0 mm 4 m/s 669 mmHg 100%
19:00 +3°C° 0 mm 4 m/s 669 mmHg 100%
20:00 +3°C° 0 mm 4 m/s 669 mmHg 100%
21:00 +2°C° 0 mm 3 m/s 669 mmHg 100%
22:00 +2°C° 0 mm 3 m/s 669 mmHg 100%
23:00 +2°C° 0 mm 3 m/s 669 mmHg 100%
Mostrar mais

Necessitamos do seu Consentimento

A Meteoprog e os seus Fornecedores de Serviços podem armazenar e aceder a dados pessoais como cookies, identificadores do dispositivo ou outras tecnologias semelhantes existentes no seu dispositivo e processar estes dados para personalizar conteúdos e anúncios, assim como funcionalidades nas redes sociais e análise de tráfego.

  • Armazenar e/ou aceder a informações no seu dispositivo

    Os cookies, identificadores do dispositivo ou outras informações podem ser armazenados ou acedidos no seu dispositivo, para os fins acima indicados.

  • Anúncios e conteúdos personalizados, medição de anúncios e conteúdos, dados sobre o público-alvo e desenvolvimento de produtos

    Os anúncios e os conteúdos podem ser personalizados com base num perfil. Podem ser adicionados dados adicionais para uma maior personalização dos anúncios e dos conteúdos. A eficácia dos anúncios e dos conteúdos pode ser medida. Podem ser obtidas informações sobre o público que visualizou os anúncios e os conteúdos. Estes dados podem ser usados para desenvolver ou melhorar sistemas, softwares ou a experiência do utilizador.

Ao clicar em "Eu concordo”, permitirá o uso de cookies, identificadores do dispositivo e web beacons mencionados ou outras tecnologias semelhantes. As configurações do navegador do seu dispositivo podem ser alteradas.

Para certos fins, podem ser invocados interesses legítimos ao invés de consentimento. Pode ler mais informação sobre este assunto na nossa Política de Privacidade e Cookies.